Sandberg, CA

12:23 PM PST on February 19, 2018 (GMT -0800)
Sandberg

Weather History for KSDB - December, 2012

Change the Weather History Date:

Sunday, December 9, 2012

  Actual Average Record
Temperature  
Mean Temperature 53 °F 42 °F  
Max Temperature 60 °F 48 °F 72 °F (2015)
Min Temperature 46 °F 37 °F 11 °F (1972)
Degree Days  
Heating Degree Days 12 22  
Month to date heating degree days 124 195  
Since 1 July heating degree days 686 974  
Cooling Degree Days 0 0  
Month to date cooling degree days 0 0  
Year to date cooling degree days 1360 998  
Growing Degree Days 3 (Base 50)    
Moisture  
Dew Point 17 °F    
Average Humidity 26    
Maximum Humidity 34    
Minimum Humidity 18    
Precipitation  
Precipitation 0.00 in 0.05 in 1.66 in (1991)
Month to date precipitation 0.18 0.46  
Year to date precipitation 4.84 10.54  
Since 1 July precipitation 0.57  
Sea Level Pressure  
Sea Level Pressure 30.06 in    
Wind  
Wind Speed 10 mph (NE)    
Max Wind Speed 20 mph    
Max Gust Speed 24 mph    
Visibility 10 miles    
Events      
T = Trace of Precipitation, MM = Missing Value Source: NWS Daily Summary

Daily Weather History Graph

Daily Weather History Graph

Search for Another Location

Airport or City:

Trip Planner

Search our weather history database for the weather conditions in past years. The results will help you decide how hot, cold, wet, or windy it might be!

Date:

Astronomy

Dec. 09, 2012 Rise Set
Actual Time 6:51 AM PST 4:44 PM PST
Civil Twilight 6:23 AM PST 5:11 PM PST
Nautical Twilight 5:51 AM PST 5:43 PM PST
Astronomical Twilight 5:20 AM PST 6:14 PM PST
Moon 2:36 AM PST (12/9) 1:48 PM PST (12/9)
Length of Visible Light 10h 48m
Length of Day
9h 53m
Waning Crescent, 17% of the Moon is Illuminated
Dec 9
Waning Crescent
Dec 13
New
Dec 19
First Quarter
Dec 28
Full
Jan 4
Last Quarter

Hourly Weather History & Observations

Time (PST) Temp. Dew Point Humidity Pressure Visibility Wind Dir Wind Speed Gust Speed Precip Events Conditions
12:48 AM 48.9 °F 19.9 °F 32% 29.95 in 10.0 mi North 11.5 mph - N/A   Clear
1:48 AM 48.0 °F 18.0 °F 30% 29.96 in 10.0 mi North 12.7 mph - N/A   Clear
2:48 AM 48.0 °F 17.1 °F 29% 29.97 in 10.0 mi North 6.9 mph - N/A   Clear
3:48 AM 46.9 °F 18.0 °F 32% 29.97 in 10.0 mi NNW 11.5 mph 16.1 mph N/A   Clear
4:48 AM 48.9 °F 19.9 °F 32% 30.00 in 10.0 mi NNW 19.6 mph - N/A   Clear
5:48 AM 48.9 °F 19.9 °F 32% 30.01 in 10.0 mi North 6.9 mph - N/A   Clear
6:48 AM 48.9 °F 18.0 °F 29% 30.01 in 10.0 mi North 3.5 mph - N/A   Clear
7:48 AM 48.0 °F 17.1 °F 29% 30.04 in 10.0 mi NE 10.4 mph - N/A   Clear
8:48 AM 52.0 °F 17.1 °F 25% 30.06 in 10.0 mi ENE 9.2 mph - N/A   Clear
9:48 AM 54.0 °F 19.0 °F 25% 30.07 in 10.0 mi NE 11.5 mph - N/A   Clear
10:48 AM 57.0 °F 18.0 °F 22% 30.06 in 10.0 mi ENE 11.5 mph 18.4 mph N/A   Clear
11:48 AM 59.0 °F 17.1 °F 20% 30.04 in 10.0 mi ENE 9.2 mph 16.1 mph N/A   Clear
12:48 PM 59.0 °F 16.0 °F 19% 30.03 in 10.0 mi ENE 8.1 mph - N/A   Clear
1:48 PM 59.0 °F 15.1 °F 18% 30.03 in 10.0 mi East 11.5 mph 18.4 mph N/A   Clear
2:48 PM 57.9 °F 16.0 °F 19% 30.04 in 10.0 mi East 11.5 mph - N/A   Clear
3:48 PM 55.0 °F 15.1 °F 21% 30.06 in 10.0 mi East 6.9 mph - N/A   Clear
4:48 PM 52.0 °F 12.9 °F 21% 30.09 in 10.0 mi East 11.5 mph - N/A   Clear
5:48 PM 52.0 °F 15.1 °F 23% 30.09 in 10.0 mi East 16.1 mph - N/A   Clear
6:48 PM 50.0 °F 15.1 °F 25% 30.12 in 10.0 mi ENE 11.5 mph - N/A   Clear
7:48 PM 50.0 °F 15.1 °F 25% 30.13 in 10.0 mi East 12.7 mph - N/A   Clear
8:48 PM 50.0 °F 16.0 °F 26% 30.15 in 10.0 mi East 9.2 mph - N/A   Clear
9:48 PM 48.9 °F 17.1 °F 28% 30.16 in 10.0 mi East 8.1 mph - N/A   Clear
10:48 PM 48.0 °F 18.0 °F 30% 30.17 in 10.0 mi ESE 6.9 mph - N/A   Clear
11:48 PM 46.9 °F 18.0 °F 32% 30.17 in 10.0 mi ESE 6.9 mph - N/A   Clear